Regional Weather Roundup
Issued by NWS Huntsville, AL

Home | Current Version | Previous Version | Text Only | Print | Product List | Glossary On
Versions: 1 2 3 4 5 6 7 8 9 10 11 12 13 14 15 16 17 18 19 20 21 22 23 24 25 26 27 28 29 30 31 32 33 34 35 36 37 38 39 40 41 42 43 44 45 46 47 48 49 50
000
ASUS44 KHUN 021110
RWRHUN

WEATHER ROUNDUP FOR THE TENNESSEE VALLEY
NATIONAL WEATHER SERVICE HUNTSVILLE AL
600 AM CDT SUN AUG 02 2015

ALZ001>004-021200-
NORTHWEST ALABAMA

CITY           SKY/WX    TMP DP  RH WIND       PRES   REMARKS
BANKHEAD NF      N/A     67  64  90 CALM        N/A
SHOALS AIRPORT CLEAR     68  64  87 CALM      29.98R
$$

ALZ005>007-016-021200-
NORTH CENTRAL ALABAMA

CITY           SKY/WX    TMP DP  RH WIND       PRES   REMARKS
DECATUR AP     CLEAR     67  65  93 CALM      29.97R
HUNTSVILLE AP  PTCLDY    68  64  87 CALM      29.96S
HUN NWS/UAH      N/A     71  64  77 NE2         N/A
MERIDIANVILLE  CLEAR     64  61  88 CALM      29.98R
REDSTONE ARSN  CLEAR     68  65  89 N2        29.96R
VINEMONT AP    FAIR      61  61  97 CALM      29.99S
$$

ALZ008>010-021200-
NORTHEAST ALABAMA

CITY           SKY/WX    TMP DP  RH WIND       PRES   REMARKS
ALBERTVILLE    CLEAR     66  66 100 N5        29.97S
FORT PAYNE     CLEAR     61  57  88 CALM      29.97R
SCOTTSBORO AP  CLEAR     64  63  94 CALM      29.98R
SCOTTSBORO HCN   N/A     63 N/A N/A MISG        N/A
VALLEY HEAD      N/A     61 N/A N/A MISG        N/A
$$

TNZ076-096-097-021200-
SOUTHEASTERN MIDDLE TENNESSEE

CITY           SKY/WX    TMP DP  RH WIND       PRES   REMARKS
TULLAHOMA      CLEAR     61  57  88 CALM      30.01R
WINCHESTER     PTCLDY    61  59  94 CALM      30.00R
$$

...SURROUNDING SITES...

CITY           SKY/WX    TMP DP  RH WIND       PRES   REMARKS
ATLANTA        PTCLDY    70  61  73 NW3       29.95R
ANNISTON       CLEAR     64  60  87 E5        29.95R
BIRMINGHAM     PTCLDY    68  64  87 CALM      29.96S
CHATTANOOGA    MOCLDY    68  64  87 CALM      29.98R
DALTON         CLEAR     63  63 100 CALM      29.96S
GADSDEN        CLEAR     63  57  82 CALM      29.94S
GOLDEN TRNGL   CLEAR     66  61  82 CALM      29.93R
HALEYVILLE     FAIR      65  65 100 CALM      30.00R
JACKSON TN     CLEAR     68  66  93 CALM      29.97R FOG
MEMPHIS        CLEAR     78  67  68 CALM      29.96R
NASHVILLE      PTCLDY    64  63  96 CALM      29.99R
ROME           CLEAR     63  61  93 CALM      29.95S
SAVANNAH       CLEAR     64  32  29 CALM      29.98R
TUPELO         CLEAR     69  66  90 NE6       29.95R
TUSCALOOSA     CLEAR     68  61  78 CALM      29.93R
$$

...GULF COAST WEATHER...

CITY           SKY/WX    TMP DP  RH WIND       PRES   REMARKS
GULFPORT       CLEAR     72  65  78 CALM      29.87R
PASCAGOULA     CLEAR     72  68  87 CALM      29.87R
MOBILE         PTCLDY    73  67  81 N5        29.88R
GULF SHORES    SUNNY     74  70  87 N3        29.84F
PENSACOLA      CLEAR     75  71  87 N3        29.85R
DESTIN         CLEAR     78  75  90 NE7       29.85R
PANAMA CITY    CLEAR     75  72  91 N6        29.84R
APPALACHICOLA  CLEAR     78  74  87 NW5       29.82R
$$



USA.gov is the U.S. government's official web portal to all federal, state and local government web resources and services.